Location: El Chorro
(10.0985°N, 67.3542°W)
Time: 19:28:03
(UTC+00:00)

Cosmos 332 Rocket - Pass Details

Date: 15 November 2025
Orbit: 673 x 693 km, 74.0° (Epoch: 06 December)

Event Time Altitude Azimuth Distance (km) Brightness Sun altitude
Rises 23:44:45 0° 201° (SSW) 3,054 7.6 -24.5°
Reaches altitude 10° 23:47:05 10° 205° (SSW) 2,139 6.8 -25.1°
Maximum altitude 23:51:49 57° 283° (WNW) 811 4.3 -26.2°
Enters shadow 23:53:09 42° 336° (NNW) 986 4.5 -26.5°
